Hourly Data Report for September 28, 2017

All times are specified in Local Standard Time (LST). Add 1 hour to adjust for Daylight Saving Time where and when it is observed.

WOODSTOCK NEWBRIDGE
NEW BRUNSWICK

46°09'08.000" N
67°32'34.000" W
154.00 m
8105603
71606
EWD

Download Data

Hourly Data (September 2017)
Hourly Data Report for September 28, 2017
Temp Definition
°C
Dew Point Temp Definition
°C
Rel Hum Definition
%
Wind Dir Definition
10's deg

Wind Spd Definition
km/h
Visibility Definition
km
Stn Press Definition
kPa
Hmdx Definition


Wind Chill Definition


Weather Definition


TIME
00:00 17.6 16.9 96 12 5   98.67     LegendNANA
01:00 17.3 16.8 97 17 1   98.70     LegendNANA
02:00 17.4 17.0 98   0   98.63     LegendNANA
03:00 17.5 17.2 98   0   98.61     LegendNANA
04:00 17.6 17.2 98 0 1   98.62     LegendNANA
05:00 17.6 16.9 95 21 5   98.61     LegendNANA
06:00 17.8 17.1 96 22 8   98.63     LegendNANA
07:00 17.3 16.4 95 24 11   98.63     LegendNANA
08:00 15.4 13.8 90 27 10   98.68     LegendNANA
09:00 16.0 12.2 79 26 10   98.65     LegendNANA
10:00 16.0 10.1 68 27 18   98.67     LegendNANA
11:00 17.4 10.1 62 29 11   98.69     LegendNANA
12:00 17.7 9.3 58 26 18   98.73     LegendNANA
13:00 17.8 9.6 59 30 11   98.74     LegendNANA
14:00 16.3 7.8 57 29 10   98.75     LegendNANA
15:00 15.7 5.8 52 28 18   98.80     LegendNANA
16:00 14.4 5.7 56 30 12   98.87     LegendNANA
17:00 13.7 5.3 57 29 9   98.90     LegendNANA
18:00 13.2 4.8 57 28 7   98.93     LegendNANA
19:00 11.0 4.3 63 28 7   98.98     LegendNANA
20:00 11.2 3.6 59 28 13   99.06     LegendNANA
21:00 9.8 2.6 61 28 9   99.10     LegendNANA
22:00 9.2 2.4 62 28 9   99.14     LegendNANA
23:00 8.0 2.6 69 28 6   99.16     LegendNANA

Notes on Data Quality.

Legend

  • E = Estimated
  • M = Missing
  • NA = Not Available
  • ‡ = Partner data that is not subject to review by the National Climate Archives
Date modified: